Wind_Speed
11 13 10 3 7 3 16 7 21 7 5 3 4 5 6 6 4 3 8 11 11 10 9 10 11 11 11 9 8 7 6 5 5 6 6 7 7 8 8 8 8 8 8 8 8 8 8 9 9
12 11 6 1 1 3 6 3 7 11 6 4 2 6 1 6 5 6 10 15 11 9 9 10 10 10 9 8 7 6 5 6 6 6 6 6 6 6 6 6 7 7 8 8 8 8 8 8 9
11 13 6 4 4 14 6 10 8 13 11 6 3 3 4 6 9 5 8 13 10 10 9 10 10 10 9 8 7 6 6 6 5 5 5 5 4 5 6 6 7 7 7 8 8 9 9 10 10
10 11 2 7 10 14 8 2 10 9 15 7 2 5 5 9 7 3 6 8 8 10 9 9 8 8 7 7 7 7 6 5 5 5 3 2 3 4 5 4 5 5 6 7 8 9 9 10 11
14 4 6 15 23 15 5 2 12 13 10 10 4 10 11 5 2 2 1 6 12 12 9 8 7 8 7 7 7 6 7 6 4 2 0 0 1 2 2 3 4 5 6 7 8 10 11 12 13
9 7 15 23 24 8 8 10 2 19 8 7 6 5 13 7 1 4 3 8 10 8 6 7 7 8 8 8 8 7 5 3 2 2 1 0 1 2 3 3 4 5 6 8 10 13 15 16 18
7 9 15 23 28 11 5 7 14 12 7 13 5 1 2 7 3 7 10 5 4 4 4 6 7 8 10 9 6 4 4 3 3 3 1 1 1 2 2 4 5 6 8 9 12 15 17 19 22
5 14 26 24 26 17 3 9 5 4 10 12 6 7 3 7 2 13 14 13 13 6 6 7 8 9 8 7 5 5 3 4 3 2 2 1 2 3 3 5 6 8 10 13 16 19 22 24 27
7 17 25 19 15 10 11 14 9 10 13 4 7 9 2 6 2 19 20 15 11 9 10 8 8 8 7 7 6 5 5 3 2 2 4 4 3 3 2 5 9 12 14 16 19 22 27 30 33
8 16 18 15 18 11 17 7 7 2 9 12 13 8 3 6 4 5 9 15 9 3 7 12 9 9 8 9 7 6 5 5 4 4 5 4 3 3 6 10 14 18 21 24 27 28 31 33 36
11 25 18 18 18 16 13 12 15 10 12 7 14 11 2 4 7 2 1 8 6 5 7 4 8 15 14 17 9 6 7 6 7 3 2 3 7 11 15 18 20 23 27 29 31 33 35 38 43
19 17 21 22 18 13 14 10 16 17 8 8 16 14 13 9 9 3 3 5 6 6 10 11 11 11 7 10 9 9 9 9 8 6 3 7 13 14 16 20 24 26 29 31 33 36 39 43 48
14 15 18 23 22 20 16 18 12 18 11 7 15 35 20 17 11 9 3 6 10 12 16 13 13 11 8 5 9 11 11 8 6 5 8 12 16 19 23 25 28 31 34 36 38 41 44 47 53
18 24 24 19 25 17 12 13 16 14 11 10 5 23 22 20 12 17 12 14 14 17 16 9 10 15 10 11 10 7 10 12 13 14 15 18 21 24 26 29 33 36 39 43 46 49 49 53 54
15 23 20 17 16 20 14 17 22 19 16 7 15 27 26 19 17 21 14 20 20 18 12 12 11 15 15 15 13 14 17 19 20 21 23 25 29 30 35 38 38 38 46 48 49 49 51 49 52
18 15 19 22 16 17 17 22 17 21 23 18 3 13 19 16 23 23 23 22 17 22 22 18 18 15 18 19 17 18 23 25 26 28 30 34 35 37 38 43 43 43 44 47 48 46 52 52 53
12 18 19 21 18 21 16 20 17 20 22 16 4 13 15 22 32 29 30 25 23 17 23 26 22 20 19 21 21 23 27 30 32 34 37 39 42 44 46 47 45 42 43 42 42 45 51 51 54
20 20 23 23 21 20 17 16 8 10 19 22 5 13 18 28 28 29 33 27 20 18 18 28 29 25 23 27 29 28 30 32 35 39 43 44 45 47 48 42 36 33 33 37 41 47 48 53 54
23 27 30 26 7 17 15 14 13 13 8 7 14 17 11 10 25 14 30 32 31 19 13 26 39 37 24 29 33 28 29 33 37 41 44 46 46 41 33 27 26 29 34 41 45 48 49 48 48
22 23 24 24 9 20 13 13 13 15 13 16 23 19 10 16 21 17 18 22 14 19 16 28 25 22 20 23 27 30 33 37 40 42 42 35 29 30 25 25 30 36 38 42 44 44 44 42 42
23 18 18 18 19 17 14 14 17 21 14 14 19 17 18 20 14 16 18 16 13 17 9 17 22 25 27 29 32 35 36 38 36 30 24 21 22 23 26 31 35 37 40 42 42 41 40 41 35
20 14 17 18 22 25 16 14 19 16 15 20 20 19 19 21 21 17 22 13 11 14 13 17 26 28 30 28 23 23 23 22 23 23 24 27 29 34 36 36 38 40 39 40 39 40 39 38 34
20 15 16 20 19 25 28 20 19 20 23 29 27 21 15 10 13 17 9 3 4 3 2 8 12 13 16 18 16 16 17 18 21 25 29 31 34 37 40 44 42 43 44 38 37 37 36 35 33
19 15 18 19 19 13 28 27 32 29 27 31 27 19 15 18 14 4 6 3 2 3 7 11 13 13 13 14 15 18 21 25 25 27 30 31 32 38 43 44 40 38 36 35 34 32 32 31 29
19 19 10 4 9 11 24 24 34 27 24 29 32 25 18 15 13 7 3 3 6 10 12 14 13 14 16 18 20 23 24 27 26 28 31 33 33 38 37 33 39 34 34 34 31 31 31 30 28
19 21 18 6 5 11 20 15 27 22 20 21 18 18 18 16 13 11 11 11 14 15 19 20 19 19 20 20 22 26 27 30 31 33 33 33 34 30 32 33 32 32 32 30 29 28 29 30 29
27 27 27 22 33 14 18 7 7 12 14 17 18 16 15 14 11 10 9 11 14 18 19 18 19 20 21 22 24 26 29 32 33 30 30 28 31 31 31 29 29 29 30 28 27 27 28 27 25
26 24 26 24 5 5 15 13 13 17 18 17 21 17 18 12 10 10 10 11 15 17 19 18 20 21 22 24 27 29 31 31 30 29 32 31 31 29 28 28 28 28 28 28 29 28 26 26 26
29 26 26 21 23 8 3 8 11 17 22 24 16 17 17 13 11 12 13 13 15 18 19 20 22 24 26 26 28 31 33 31 30 34 32 31 30 28 27 27 28 28 29 27 27 27 27 26 26
36 26 31 29 15 15 13 4 7 11 18 19 24 26 18 14 14 14 13 14 17 18 19 21 22 23 26 28 29 31 30 31 32 29 28 30 28 27 26 26 26 27 27 26 26 27 28 27 27
Wind_Direction
340 332 324 325 63 104 105 114 321 65 122 91 210 225 184 163 207 209 155 133 145 146 152 159 159 157 155 150 146 140 133 125 114 102 91 81 73 64 56 45 28 15 6 0 355 350 345 340 335
330 324 287 266 153 130 144 90 115 116 158 167 95 335 136 94 94 155 132 126 138 139 149 157 160 160 160 157 153 151 142 126 116 103 86 77 71 58 35 12 358 352 350 354 358 2 4 3 359
325 319 338 350 276 215 247 97 133 146 147 184 315 40 70 89 110 146 109 124 138 144 149 148 151 154 157 155 156 149 140 131 117 105 93 73 46 19 -0 352 350 357 6 8 9 10 9 8 5
311 288 310 276 301 268 242 342 123 128 156 192 258 32 51 65 56 85 105 131 142 149 152 145 148 151 154 153 155 153 144 134 122 105 82 35 357 347 355 5 14 22 28 26 26 25 20 12 6
295 317 333 302 308 245 115 108 171 142 158 174 146 91 74 57 30 285 115 183 148 148 145 144 156 156 158 159 163 157 150 139 127 118 89 329 12 28 33 47 38 33 33 38 34 25 15 6 357
286 338 303 304 317 211 215 317 356 196 147 167 231 94 83 60 25 188 158 257 147 122 135 155 171 165 165 166 162 156 142 142 153 176 189 180 88 78 60 43 40 47 43 31 21 10 1 353 346
288 324 296 306 315 218 257 96 180 171 254 182 196 285 70 37 28 183 148 170 226 120 160 171 177 173 167 159 162 168 170 176 217 212 182 130 104 65 42 49 49 36 20 6 4 352 344 340 336
249 283 290 298 307 293 4 187 261 199 3 148 223 288 338 26 25 137 160 192 220 168 162 170 179 170 163 175 179 177 203 220 191 170 147 96 55 55 79 58 24 4 349 342 339 333 329 329 331
235 265 274 287 303 352 332 247 201 206 157 4 220 281 37 21 35 152 183 211 230 162 160 168 175 178 185 187 186 212 207 182 159 113 72 54 55 79 46 353 339 340 328 321 320 321 323 326 328
261 275 273 296 299 345 326 241 223 215 197 84 126 135 184 330 27 113 199 178 249 254 149 189 188 196 192 197 209 186 182 152 140 124 105 87 75 349 328 327 328 320 319 321 323 321 320 322 322
265 264 289 299 301 284 316 293 215 283 177 213 186 186 157 23 146 158 53 192 265 322 253 264 180 211 196 219 175 187 166 160 171 177 178 316 320 338 330 322 317 313 314 314 315 311 310 311 313
269 268 274 282 293 283 272 337 234 244 173 276 191 228 261 165 171 178 243 212 258 245 254 273 278 272 137 169 169 186 184 201 189 200 281 304 311 314 304 302 303 306 304 308 307 307 309 310 312
262 281 285 275 277 285 298 287 312 201 239 313 308 234 209 169 159 187 249 237 252 247 279 275 256 256 252 224 206 195 206 208 223 239 280 293 299 301 299 300 300 302 308 304 303 304 305 308 312
277 282 275 278 279 265 283 274 283 278 281 322 317 170 186 179 169 185 202 213 241 257 281 266 227 234 238 237 246 249 259 260 263 274 282 288 290 291 292 294 299 304 304 302 302 302 304 310 312
270 285 277 271 275 257 282 261 261 274 257 263 337 191 183 179 206 205 219 213 233 252 277 268 234 228 238 243 250 264 273 277 277 280 284 286 289 292 296 297 296 296 294 296 297 299 306 308 307
274 277 273 264 256 254 260 269 255 264 261 265 354 179 195 206 199 212 208 198 213 260 269 270 269 237 237 249 253 261 270 274 278 282 286 289 294 297 291 289 292 291 290 292 293 297 304 303 306
252 264 250 271 257 247 242 247 261 261 275 258 269 215 221 195 198 209 216 207 200 214 270 276 278 272 244 245 249 254 262 273 282 287 289 292 293 294 296 296 299 296 293 289 293 300 304 306 307
249 265 256 268 291 221 213 244 268 268 275 247 218 197 195 200 220 216 220 212 314 220 232 277 275 275 276 272 260 263 271 279 286 289 290 295 298 298 302 307 306 305 300 301 301 303 306 307 307
257 275 284 292 287 201 215 231 252 281 277 194 211 217 219 214 227 238 264 264 269 266 245 227 252 256 241 255 269 278 282 288 287 291 294 296 301 305 309 318 320 315 310 309 308 309 308 309 308
261 275 287 286 324 197 214 216 221 252 268 248 229 221 189 238 254 259 271 280 283 291 287 225 240 272 275 275 287 295 292 289 291 292 295 300 303 305 315 318 316 314 313 313 312 310 310 311 315
262 267 282 288 292 302 223 229 247 249 249 246 215 227 227 244 257 299 300 303 313 309 267 231 253 267 276 281 286 287 288 290 291 298 308 308 310 310 313 320 321 316 314 315 314 313 316 317 320
271 260 269 290 293 295 292 240 245 271 244 236 229 235 249 255 276 295 298 314 298 297 287 272 264 270 273 280 288 288 287 291 307 315 320 324 319 321 319 320 316 313 316 316 317 318 320 319 317
267 248 259 294 295 282 277 290 281 262 248 226 225 239 253 267 300 288 318 58 72 72 239 251 267 274 285 294 296 304 315 320 321 320 320 321 320 316 317 319 316 316 315 316 320 320 318 316 317
247 264 267 279 270 275 257 274 278 271 293 217 214 233 260 282 289 285 136 117 72 340 324 314 301 292 301 320 331 332 328 322 321 319 318 315 316 314 318 317 318 315 314 317 321 318 317 317 316
227 235 256 293 276 257 259 263 261 268 258 220 220 226 246 265 284 278 277 334 342 348 339 329 326 332 334 332 329 326 325 325 322 320 318 314 311 314 314 314 314 315 317 318 320 319 319 314 315
224 226 231 210 222 258 292 258 277 240 201 192 207 230 236 264 251 269 287 315 320 328 336 336 332 328 326 325 326 327 327 327 325 322 320 317 316 314 316 316 315 316 317 319 317 323 320 316 316
230 234 233 246 264 296 284 158 137 175 184 201 215 223 243 224 227 244 275 304 317 326 335 331 324 322 325 326 328 327 326 327 325 325 325 323 322 319 316 316 316 319 319 319 320 327 321 318 315
225 231 215 231 249 241 270 262 184 193 209 223 236 220 217 219 242 250 270 294 305 317 328 333 331 329 329 330 330 327 328 328 325 324 321 322 323 321 319 319 321 322 323 324 331 326 321 318 317
210 229 233 232 234 208 228 270 204 207 257 254 245 245 236 226 241 248 266 283 297 310 317 328 333 337 333 334 330 328 328 328 325 323 321 322 323 323 322 324 325 327 326 334 327 323 322 318 316
217 222 235 243 252 260 264 253 202 218 222 252 255 258 243 244 237 250 265 281 297 307 309 313 322 327 330 332 329 327 328 327 327 327 324 324 325 323 323 327 326 330 329 330 320 324 322 319 319
Height
3209 3207 3208 3208 3212 3212 3215 3219 3222 3209 3212 3208 3206 3205 3203 3201 3200 3202 3201 3205 3206 3208 3210 3212 3213 3215 3216 3217 3218 3218 3219 3219 3219 3220 3220 3220 3220 3220 3220 3220 3220 3220 3219 3219 3219 3218 3218 3217 3217
3208 3208 3208 3207 3209 3210 3212 3211 3210 3209 3213 3208 3206 3204 3203 3202 3200 3198 3202 3203 3205 3208 3210 3211 3213 3214 3215 3216 3217 3218 3218 3218 3219 3219 3219 3220 3220 3219 3219 3219 3219 3219 3218 3218 3217 3216 3216 3216 3215
3208 3206 3208 3206 3206 3206 3208 3210 3214 3211 3207 3205 3204 3204 3204 3202 3201 3199 3202 3203 3205 3207 3209 3211 3212 3213 3214 3215 3216 3217 3217 3218 3218 3219 3219 3219 3219 3219 3219 3218 3218 3217 3217 3216 3216 3215 3215 3214 3214
3208 3206 3208 3206 3208 3206 3206 3207 3207 3208 3209 3205 3204 3204 3204 3203 3202 3200 3202 3204 3205 3206 3208 3209 3211 3212 3213 3214 3216 3216 3217 3217 3218 3218 3218 3218 3218 3218 3218 3218 3217 3217 3217 3216 3216 3215 3215 3214 3213
3207 3207 3205 3205 3207 3205 3204 3203 3208 3204 3211 3205 3205 3204 3203 3204 3203 3201 3202 3202 3207 3206 3207 3208 3210 3211 3213 3214 3215 3216 3216 3216 3216 3217 3217 3217 3217 3217 3217 3217 3217 3216 3216 3216 3216 3215 3215 3214 3213
3206 3207 3206 3203 3208 3206 3202 3205 3212 3206 3205 3206 3206 3204 3204 3204 3204 3203 3201 3198 3204 3205 3206 3207 3209 3210 3211 3212 3213 3214 3214 3215 3215 3215 3215 3216 3216 3216 3216 3216 3216 3216 3215 3215 3215 3214 3213 3212 3210
3204 3205 3202 3203 3206 3209 3203 3198 3207 3205 3202 3208 3206 3203 3204 3204 3202 3202 3201 3200 3201 3204 3205 3207 3208 3208 3209 3211 3212 3212 3212 3213 3213 3213 3213 3214 3214 3215 3215 3215 3215 3215 3215 3214 3214 3213 3212 3210 3208
3203 3206 3200 3203 3205 3205 3210 3206 3200 3201 3210 3214 3205 3201 3202 3202 3201 3202 3203 3203 3205 3206 3205 3206 3207 3207 3208 3210 3210 3211 3211 3211 3211 3211 3211 3212 3213 3214 3214 3214 3215 3215 3214 3213 3212 3210 3208 3206 3204
3203 3202 3201 3199 3205 3203 3204 3201 3202 3205 3207 3201 3204 3200 3201 3202 3201 3203 3205 3202 3203 3205 3205 3206 3206 3206 3207 3208 3209 3209 3209 3210 3210 3210 3211 3212 3213 3213 3213 3213 3213 3213 3212 3210 3208 3206 3204 3201 3199
3201 3200 3199 3199 3205 3204 3201 3197 3197 3199 3210 3204 3205 3205 3203 3202 3201 3203 3204 3204 3202 3202 3204 3206 3205 3206 3206 3207 3207 3208 3208 3208 3209 3210 3211 3211 3212 3212 3212 3212 3211 3209 3207 3206 3203 3201 3197 3195 3192
3198 3198 3200 3199 3203 3204 3201 3195 3198 3199 3203 3208 3208 3205 3205 3202 3202 3204 3205 3207 3207 3203 3203 3204 3205 3203 3205 3204 3206 3207 3209 3209 3209 3208 3209 3210 3210 3209 3206 3206 3206 3205 3203 3201 3199 3196 3193 3191 3188
3196 3197 3199 3199 3202 3203 3203 3200 3200 3199 3205 3198 3209 3208 3207 3206 3206 3207 3210 3211 3212 3209 3206 3205 3206 3204 3205 3204 3205 3206 3207 3208 3209 3209 3209 3208 3207 3207 3206 3205 3202 3201 3199 3198 3195 3191 3187 3184 3180
3194 3195 3197 3197 3198 3201 3199 3197 3196 3196 3198 3196 3206 3202 3203 3205 3209 3210 3212 3213 3214 3212 3210 3208 3207 3206 3205 3205 3204 3206 3209 3210 3209 3209 3209 3207 3205 3204 3202 3200 3198 3196 3195 3191 3187 3183 3179 3175 3170
3192 3192 3194 3195 3195 3197 3200 3194 3195 3194 3193 3194 3193 3199 3205 3206 3209 3209 3209 3211 3213 3213 3211 3210 3211 3208 3205 3205 3207 3207 3206 3207 3208 3208 3206 3203 3202 3199 3197 3194 3192 3191 3187 3183 3179 3175 3171 3167 3160
3190 3190 3189 3191 3192 3193 3196 3197 3194 3194 3190 3190 3195 3199 3202 3204 3209 3211 3210 3210 3212 3212 3212 3213 3212 3211 3210 3207 3207 3208 3206 3203 3203 3205 3202 3199 3197 3196 3192 3189 3186 3184 3179 3175 3171 3168 3164 3157 3152
3187 3187 3187 3187 3188 3190 3193 3192 3193 3190 3191 3191 3188 3194 3195 3196 3207 3209 3205 3209 3211 3213 3214 3214 3214 3213 3211 3210 3208 3207 3204 3201 3199 3198 3197 3193 3192 3191 3186 3182 3178 3175 3170 3166 3162 3158 3154 3147 3140
3184 3184 3184 3181 3183 3186 3189 3187 3189 3189 3188 3191 3190 3190 3188 3196 3199 3200 3201 3202 3205 3209 3215 3216 3214 3212 3210 3209 3207 3203 3200 3197 3195 3193 3192 3189 3185 3181 3177 3172 3168 3165 3161 3156 3153 3151 3144 3136 3129
3180 3182 3180 3178 3178 3177 3183 3184 3186 3187 3190 3187 3191 3189 3190 3191 3193 3196 3198 3200 3204 3206 3210 3212 3211 3210 3207 3207 3201 3199 3197 3194 3192 3189 3185 3181 3177 3171 3167 3163 3158 3155 3153 3149 3146 3140 3135 3127 3119
3181 3181 3181 3176 3181 3175 3179 3181 3183 3185 3187 3189 3186 3188 3190 3192 3196 3199 3202 3194 3192 3201 3205 3201 3196 3195 3198 3196 3197 3195 3193 3191 3187 3184 3180 3173 3168 3163 3159 3156 3153 3150 3147 3141 3135 3130 3125 3119 3110
3179 3179 3177 3173 3175 3176 3176 3177 3180 3183 3185 3186 3179 3183 3184 3186 3190 3192 3194 3194 3193 3192 3191 3191 3195 3192 3193 3191 3191 3187 3185 3184 3181 3177 3172 3167 3161 3157 3153 3151 3148 3144 3139 3134 3127 3121 3115 3110 3101
3177 3177 3175 3174 3172 3175 3175 3175 3177 3180 3184 3177 3174 3177 3182 3184 3188 3189 3191 3191 3188 3186 3187 3188 3189 3191 3191 3189 3186 3181 3180 3176 3172 3169 3164 3159 3155 3151 3148 3145 3140 3136 3130 3125 3119 3113 3106 3100 3095
3175 3174 3175 3174 3173 3172 3174 3172 3173 3175 3179 3174 3169 3169 3174 3180 3185 3188 3189 3188 3186 3184 3184 3186 3190 3188 3188 3183 3180 3178 3175 3172 3164 3160 3155 3151 3147 3143 3139 3138 3133 3129 3123 3116 3110 3104 3098 3092 3088
3173 3174 3175 3175 3171 3169 3167 3170 3170 3171 3172 3169 3169 3165 3168 3175 3179 3181 3182 3183 3182 3182 3184 3185 3186 3185 3182 3178 3176 3171 3167 3164 3159 3155 3151 3146 3142 3137 3132 3129 3125 3120 3115 3109 3104 3098 3093 3087 3082
3171 3173 3172 3172 3171 3169 3166 3168 3163 3164 3166 3163 3166 3165 3165 3169 3175 3175 3178 3179 3179 3180 3181 3181 3180 3179 3175 3171 3167 3164 3161 3158 3155 3151 3147 3143 3138 3131 3126 3121 3117 3113 3108 3103 3098 3093 3088 3083 3078
3167 3170 3171 3171 3170 3168 3165 3166 3158 3161 3160 3160 3161 3164 3168 3168 3168 3171 3175 3176 3176 3175 3175 3174 3171 3168 3166 3164 3162 3160 3158 3154 3151 3146 3141 3138 3134 3129 3123 3117 3112 3107 3102 3097 3092 3088 3083 3078 3074
3163 3166 3167 3172 3170 3165 3164 3161 3153 3155 3157 3160 3162 3165 3167 3169 3169 3169 3169 3170 3171 3171 3169 3167 3165 3164 3163 3162 3159 3156 3153 3149 3144 3141 3136 3132 3128 3123 3118 3113 3107 3101 3097 3092 3087 3082 3078 3073 3069
3159 3159 3164 3165 3162 3165 3163 3160 3160 3154 3155 3158 3160 3163 3165 3166 3167 3169 3170 3170 3169 3168 3167 3166 3164 3163 3160 3158 3155 3151 3148 3143 3140 3135 3132 3127 3122 3118 3113 3108 3103 3097 3092 3087 3083 3077 3073 3070 3065
3150 3157 3159 3160 3162 3164 3157 3157 3153 3152 3153 3155 3156 3159 3161 3162 3163 3166 3168 3168 3167 3166 3165 3163 3161 3159 3156 3153 3150 3147 3144 3140 3135 3132 3128 3123 3118 3113 3108 3103 3097 3092 3087 3083 3077 3073 3068 3064 3060
3145 3148 3152 3154 3154 3154 3157 3152 3152 3149 3153 3153 3156 3155 3157 3159 3161 3164 3165 3165 3164 3163 3161 3159 3157 3155 3152 3150 3146 3143 3138 3134 3131 3127 3122 3118 3113 3108 3103 3098 3093 3087 3083 3078 3074 3068 3064 3059 3055
3135 3140 3145 3146 3148 3148 3148 3151 3149 3149 3151 3152 3150 3151 3154 3159 3160 3163 3163 3163 3162 3161 3158 3156 3154 3152 3149 3146 3143 3139 3135 3131 3126 3122 3118 3113 3108 3103 3098 3093 3088 3084 3079 3074 3068 3064 3060 3055 3049